STARLINK-1327, 45555

Orbit data source: Space-Track

STARLINK-1327, 45555 is a payload satellite owned by SpaceX/Seattle (US) in LEO that was launched on Wed, 22 Apr 2020 UTC via an FALCON 9 launch vehicle from the Air Force Eastern Test Range (AFETR). Payload-class satellites include a variety of spacecraft equipped with specific instruments for various scientific and technological missions. These include communications satellites like Starlink; space stations such as the ISS; scientific satellites like the Hubble; Earth observation satellites from companies like Planet Labs, Umbra, and HawkEye 360; GPS; miniature CubeSats for education and research; and military/defense satellites.

Loading next visibility...
Identifier
45555, 2020-025AA
Orbit
LEO
Last TLE update
21 hours ago
Origin
Manufacturer
SpaceX/Seattle
Mission
Operational Commercial Communications
Bus & Motor
STARLINK, Unknown motor
Mass
260 kg wet, ~248 kg dry
Launch date (UTC)
2020-04-22 (5 years ago)
Launch vehicle
FALCON 9
Launch site
Air Force Eastern Test Range (AFETR)
Object type
Payload
Rocket body
Debris
Shape & HBR
Box + 1 Pan, 8.86 m
Radar Cross Section
13.562 m², Large (>1 m²)

Expand to show TLE details & history

TLE from 21 hours ago
0 STARLINK-1327
1 45555U 20025AA  25128.40781926  .00002034  00000-0  15545-3 0  9990
2 45555  53.0546  17.0817 0001354  82.5047 277.6096 15.06394225279352
Epoch: 2025-05-08T09:47Z
Definitive object data (Epoch: 2025-05-08T09:47:15.584Z)
Latitude
0.00002°
Longitude
3.78803°
Altitude
547.984 km
Speed
7.589 km/s
True Right ascension
01h 08m 19s
True Declination
0° 00' 00"
Sunlit
Object was in daylight at TLE epoch
Visualization TLE readout
Latitude
43.75136°
Longitude
45.59353°
Altitude
550.771 km
Speed
7.592 km/s
Apparent Right ascension
03h 25m 06s
Apparent Declination
4° 03' 58"
Sunlit
Object is in daylight
Visualization observer readout
Local Sidereal Time
14:53:57
Azimuth
348.895° N
Elevation
-45.439°
Doppler factor
1
Orbital elements
Apogee altitude
548.438 km
Perigee altitude
546.562 km
Semi-major axis
6,925.637 km
Eccentricity
0.0001354
Inclination
53.0546°
RAAN
17.0817°
Arg. of periapsis
82.5047°
True anomaly
277.59422°
Mean anomaly
277.6096°
Eccentric anomaly
277.60191°
Mean motion
3.76577 °/min
BSTAR
0.00015545
Orbital period
95.6 mins
Loading maneuver chart data...
Loading SW <> Apogee altitude chart data...
Loading historical data...
Loading historical data...
Loading historical data...
Loading historical data...
Loading historical data...
Loading historical data...
Loading historical data...

STARLINK-1327 Visibility forecast

Observer location: undefined°, undefined°

Span
Click to sort rows by Start time (UTC) header in descending order
Start Az.
Max El. time (UTC)
Max El. Az.
Max El.
End time (UTC)
End Az.
5 mins2025-05-09 17:47:04.717Z165.537° S2025-05-09 17:49:04.717Z133.347° SE17.254°2025-05-09 17:52:04.717Z84.806° E
6 mins2025-05-09 19:26:04.717Z247.717° W2025-05-09 19:28:04.717Z287.954° WNW39.84°2025-05-09 19:32:04.717Z43.336° NE
4 mins2025-05-09 21:07:04.717Z313.595° NW2025-05-09 21:09:04.717Z349.21° N16.807°2025-05-09 21:11:04.717Z21.001° NNE
5 mins2025-05-10 00:28:04.717Z340.843° N2025-05-10 00:30:04.717Z20.366° NNE23.366°2025-05-10 00:33:04.717Z77.296° E
7 mins2025-05-10 02:07:04.717Z300.67° NW2025-05-10 02:10:04.717Z222.237° SW41.341°2025-05-10 02:14:04.717Z143.364° SSE
|